Theta_e
290 290 290 290 291 291 291 293 294 293 294 295 295 295 293 291 290 290 291 291 289 290
289 288 288 288 288 289 290 292 291 291 291 292 293 293 293 290 289 289 290 291 291 290
287 287 287 286 285 285 286 288 289 289 289 290 290 291 290 290 289 288 290 290 289 289
285 286 285 284 283 283 284 285 286 287 287 287 288 288 288 288 288 287 288 289 288 288
284 284 284 283 282 282 282 283 284 285 285 286 287 287 286 287 289 288 288 288 288 288
281 281 282 282 280 280 281 281 282 282 282 283 284 285 285 285 287 287 288 288 287 287
280 281 282 282 280 278 279 280 280 281 281 282 283 284 284 285 285 286 287 287 287 287
281 281 281 280 280 279 278 279 280 280 280 281 281 282 283 284 284 284 285 286 286 287
281 281 280 280 280 279 278 278 279 279 279 278 280 284 286 286 284 285 285 284 285 286
280 280 280 280 279 279 277 277 277 277 278 277 278 283 284 286 283 283 284 284 285 285
279 279 279 279 278 278 278 276 276 276 276 276 277 281 283 283 282 282 283 284 284 284
277 277 277 276 277 277 276 276 275 275 274 274 274 279 280 280 279 280 281 283 284 284
274 273 273 274 274 275 275 274 274 273 273 273 271 276 277 277 276 277 279 281 282 284
270 268 268 268 269 269 269 270 269 269 270 270 270 271 275 277 275 276 277 278 280 282
Wind_Speed
9 6 6 6 6 7 7 7 8 6 5 7 7 7 6 5 6 7 10 15 8 9
7 7 7 7 6 5 7 9 10 8 7 7 7 7 8 5 7 8 9 12 13 11
5 6 7 7 8 8 9 10 10 9 7 9 8 7 7 7 7 8 9 8 12 12
4 4 3 4 6 8 9 10 10 8 9 8 10 8 7 7 8 10 11 11 12 14
5 4 5 4 5 6 6 8 8 8 9 10 9 8 8 10 10 11 13 13 14 16
5 5 5 6 5 6 7 7 7 5 6 8 9 10 9 9 11 12 14 14 14 15
6 7 8 8 6 6 6 7 7 8 7 8 9 9 10 10 11 13 14 14 15 15
8 10 11 10 8 7 7 8 8 9 9 9 9 8 9 9 11 12 14 15 15 16
9 12 12 12 12 9 9 10 10 12 11 11 10 19 23 19 12 13 14 15 15 15
13 14 15 14 13 13 11 10 13 13 12 14 14 24 26 24 14 13 14 16 15 15
14 16 16 16 17 17 14 14 15 15 14 15 16 28 28 27 17 15 17 17 17 17
13 14 16 16 17 17 16 17 17 16 19 18 18 29 31 27 17 18 19 17 16 17
12 14 16 17 19 17 16 18 15 19 19 21 22 32 34 29 15 19 16 17 17 23
15 14 15 17 17 18 19 20 21 22 21 22 22 25 37 35 19 16 16 16 14 13
Wind_Direction
18 12 1 356 357 352 332 332 331 328 276 246 239 242 240 229 225 221 228 234 224 221
8 3 358 353 350 341 336 338 336 324 323 302 266 241 239 238 233 231 230 233 233 232
1 6 351 351 350 342 334 332 330 337 332 319 301 277 253 248 245 235 236 235 239 237
345 353 333 327 327 327 323 322 318 340 338 318 312 299 274 255 249 244 247 238 235 239
325 328 298 283 286 283 277 286 304 331 332 325 316 301 290 276 266 258 253 247 242 242
295 278 280 273 276 278 281 291 313 316 300 302 303 303 288 272 275 267 262 253 246 246
302 303 298 292 275 292 303 306 305 297 289 289 290 286 281 279 274 270 267 261 253 250
301 307 306 305 296 295 292 289 279 279 281 284 285 280 284 276 275 274 273 267 262 256
294 298 297 295 292 277 282 286 286 284 275 284 279 283 291 290 284 277 271 269 265 259
294 294 292 292 289 285 283 284 283 280 278 279 279 283 286 285 281 279 273 269 265 264
284 281 284 289 286 286 287 288 288 286 284 282 279 280 282 283 278 272 268 264 261 261
281 282 285 284 285 284 284 283 283 284 288 285 282 285 287 287 283 272 266 261 256 254
307 300 297 298 297 295 292 286 285 283 281 281 283 285 287 287 278 270 264 264 258 250
311 311 306 302 299 299 296 292 288 285 281 279 276 279 282 281 276 267 268 263 260 254